Weather History for Nassau Airport, Bahamas

Change the Weather History Date:

Wednesday, March 6, 2013

  Actual Average Record
Temperature  
Mean Temperature 66 °F -  
Max Temperature 79 °F 80 °F - ()
Min Temperature 54 °F 64 °F - ()
Cooling Degree Days 2    
Growing Degree Days 16 (Base 50)    
Moisture  
Dew Point 58 °F    
Average Humidity 66    
Maximum Humidity 94    
Minimum Humidity 35    
Precipitation  
Precipitation 0.00 in 0.06 in - ()
Sea Level Pressure  
Sea Level Pressure 30.05 in    
Wind  
Wind Speed 6 mph ()    
Max Wind Speed 21 mph    
Max Gust Speed -    
Visibility 7.1 miles    
Events      
T = Trace of Precipitation, MM = Missing Value Source: Averaged Metar Reports

Daily Weather History Graph

Daily Weather History Graph

Search for Another Location

Airport:

Trip Planner

Search our weather history database for the weather conditions in past years. The results will help you decide how hot, cold, wet, or windy it might be!

Date:

Astronomy

Mar. 06, 2013 Rise Set
Actual Time 6:27 AM EST 6:14 PM EST
Civil Twilight 6:04 AM EST 6:37 PM EST
Nautical Twilight 5:38 AM EST 7:04 PM EST
Astronomical Twilight 5:11 AM EST 7:30 PM EST
Moon 2:09 AM EST (3/6) 1:18 PM EST (3/6)
Length of Visible Light 12h 32m
Length of Day
11h 47m
Waning Crescent, 30% of the Moon is Illuminated
Mar 6
Waning Crescent
Mar 11
New
Mar 19
First Quarter
Mar 27
Full
Apr 3
Last Quarter

Hourly Weather History & Observations

Time (EST) Temp. Heat Index Dew Point Humidity Pressure Visibility Wind Dir Wind Speed Gust Speed Precip Events Conditions
12:00 AM 60.8 °F - 53.6 °F 77% 30.12 in - Calm Calm - N/A   Clear
1:00 AM 59 °F - 56 °F 85% 30.09 in 9 mi Calm Calm - -  
2:00 AM 62.6 °F - 55.4 °F 77% 30.04 in - Calm Calm - N/A   Clear
3:00 AM 62.6 °F - 55.4 °F 77% 30.04 in 6.2 mi Calm Calm - N/A   Scattered Clouds
4:00 AM 59 °F - 55 °F 82% 30.04 in 9 mi Calm Calm - -   Partly Cloudy
4:00 AM 59.0 °F - 55.4 °F 88% 30.04 in 6.2 mi Calm Calm - N/A   Scattered Clouds
6:00 AM 62.6 °F - 55.4 °F 77% 30.06 in 6.2 mi Calm Calm - N/A   Partly Cloudy
7:00 AM 60 °F - 58 °F 91% 30.07 in 9 mi 2.3 mph - -   Scattered Clouds
7:00 AM 60.8 °F - 59.0 °F 94% 30.07 in 6.2 mi Variable 2.3 mph - N/A   Partly Cloudy
8:00 AM 68.0 °F - 59.0 °F 73% 30.09 in - WSW 4.6 mph - N/A   Clear
9:00 AM 69.8 °F - 57.2 °F 64% 30.09 in 6.2 mi SW 12.7 mph - N/A   Partly Cloudy
10:00 AM 73 °F - 58 °F 51% 30.11 in 9 mi WSW 11.5 mph - -   Scattered Clouds
10:00 AM 73.4 °F - 59.0 °F 61% 30.10 in 6.2 mi WSW 11.5 mph - N/A   Partly Cloudy
11:00 AM 71.6 °F - 55.4 °F 57% 30.10 in 6.2 mi WNW 11.5 mph - N/A   Partly Cloudy
12:00 PM 73.4 °F - 57.2 °F 57% 30.09 in 6.2 mi WSW 11.5 mph - N/A   Partly Cloudy
1:00 PM 78 °F - 59 °F 43% 30.06 in 9 mi West 12.7 mph - -   Scattered Clouds
1:00 PM 77.0 °F - 59.0 °F 54% 30.05 in 6.2 mi West 12.7 mph - N/A   Partly Cloudy
2:00 PM 75.2 °F - 57.2 °F 53% 30.01 in - West 12.7 mph - N/A   Clear
3:00 PM 77.0 °F - 57.2 °F 50% 30.01 in 6.2 mi WNW 13.8 mph - N/A   Scattered Clouds
4:00 PM 80 °F - 57 °F 35% 30.01 in 9 mi West 20.7 mph - -   Scattered Clouds
4:00 PM 80.6 °F 80.8 °F 57.2 °F 45% 30.00 in 6.2 mi West 19.6 mph - N/A   Scattered Clouds
5:00 PM 75.2 °F - 57.2 °F 53% 30.00 in 6.2 mi West 16.1 mph - N/A   Scattered Clouds
6:00 PM 73.4 °F - 59.0 °F 61% 30.00 in 6.2 mi West 16.1 mph - N/A   Scattered Clouds
7:00 PM 74 °F - 60 °F 53% 30.01 in 9 mi West 16.1 mph - -   Scattered Clouds
7:00 PM 73.4 °F - 60.8 °F 65% 30.01 in 6.2 mi West 16.1 mph - N/A   Scattered Clouds
8:00 PM 71.6 °F - 62.6 °F 73% 30.02 in 6.2 mi West 13.8 mph - N/A   Scattered Clouds
9:00 PM 71.6 °F - 64.4 °F 78% 30.03 in 6.2 mi West 11.5 mph - N/A   Scattered Clouds
11:00 PM 71.6 °F - 64.4 °F 78% 30.03 in - WSW 17.3 mph - N/A   Mostly Cloudy